カタログに戻る

ONEWEB-0164

運用中通信PO
NORAD 48063·PAYLOAD·🇬🇧 United Kingdom

打ち上げ Mar 25, 2021 から Vostochny Cosmodrome

Loading…

次のパス (今後24時間)

TLE

最新Source: CelesTrak SupGP

元期: Sep 14, 2026, 15:01 UTC

1 48063C 21025X   26257.62623102  .00000540  00000+0  14797-2 0  2570
2 48063  87.8916 302.4334 0001995  95.8517   5.4396 13.13466969    16

AllMySatでONEWEB-0164をリアルタイム追跡

Download on the App Store